Location: Ciserano
(45.5833°N, 9.6000°E)
Time: 01:33:45
(UTC+00:00)

SJ 16-02 - Pass Details

Date: 25 April 2021
Orbit: 605 x 617 km, 75.0° (Epoch: 10 May)

Event Time Altitude Azimuth Distance (km) Brightness Sun altitude
Exits shadow 01:23:22 20° 306° (NW) 1,430 3.2 -24.9°
Drops below altitude 10° 01:26:32 10° 351° (N) 1,990 4.5 -24.6°
Sets 01:29:18 0° 9° (N) 2,901 5.8 -24.3°
